Flag for Mexico Weather past 2 weeks in Veracruz, Veracruz, Mexico

Now
84 °F

Broken clouds.


Feels Like: 92 °F
Forecast: 77 / 85 °F
Wind: 7 mph from South

Location: Gen. Heriberto Jara

Current Time: Sep 30, 2014 at 2:39:25 PM

Latest Report: Sep 30, 2014 at 12:51 PM


Visibility: 7 mi

Pressure: 29.81 "Hg

Humidity: 74%

Dew point: 75 °F

Location of VeracruzLocation

Historic Weather in Veracruz — Graph

°F

Veracruz temperature yesterday

Maximum temperature yesterday: 82 °F (at 2:48 PM)
Minimum temperature yesterday: 75 °F (at 5:42 AM)
Average temperature yesterday: 78 °F

Past Weeks' High & Low Weather Summary

 TemperatureHumidityPressure
High91 °F (Sep 19, 1:45 PM)94% (Sep 16, 5:53 AM)30.01 "Hg (Sep 16, 5:53 AM)
Low72 °F (Sep 26, 5:46 AM)59% (Sep 19, 1:45 PM)29.67 "Hg (Sep 19, 6:48 PM)
Average80 °F81%29.87 "Hg
* Reported Sep 15 2:57 PM — Sep 30 12:51 PM, Veracruz, Weather by CustomWeather, © 2014

Note: Actual official high and low records may vary slightly from our data, if they occured in-between our weather recording intervals... More about our weather records

Advertising

Veracruz weather history for previous 24 hours

 ConditionsComfort  
Time TempWeatherWind HumidityBarometerVisibility
12:51 PM
Sep 30
84 °FBroken clouds.7 mph74%29.81 "Hg7 mi
11:47 AM84 °FBroken clouds.3 mph70%29.86 "Hg7 mi
10:53 AM81 °FBroken clouds.No wind79%29.88 "Hg7 mi
9:54 AM81 °FMore clouds than sun.5 mph79%29.85 "Hg7 mi
8:48 AM75 °FMore clouds than sun.No wind94%29.88 "Hg7 mi
7:45 AM73 °FMostly cloudy.No wind94%29.87 "Hg7 mi
6:53 AM73 °FPartly cloudy.No wind94%29.82 "Hg7 mi
5:53 AM75 °FMostly cloudy.No wind89%29.84 "Hg7 mi
5:16 AM75 °FMostly cloudy.2 mph94%29.84 "Hg7 mi
10:45 PM
Sep 29
77 °FPassing clouds.6 mph83%29.88 "Hg7 mi
9:45 PM79 °FPassing clouds.8 mph79%29.81 "Hg7 mi
8:47 PM79 °FPartly cloudy.10 mph79%29.83 "Hg7 mi
7:51 PM79 °FBroken clouds.6 mph84%29.82 "Hg7 mi
4:47 PM82 °FCloudy.12 mph74%29.81 "Hg7 mi
3:45 PM82 °FCloudy.7 mph79%29.77 "Hg7 mi
2:48 PM82 °FMore clouds than sun.8 mph74%29.83 "Hg7 mi
Weather by CustomWeather, © 2014

See weather overviewHow to use our weather pages